This is the latest recevied weather packets stored in our database for station/object SP2WPY-13. If no packets are shown the sender has not sent any weather packets the latest 10 day(s).
| Time | Temp. | Humidity | Pressure | Rain* | Wind** | Luminosity | Snow |
|---|---|---|---|---|---|---|---|
| 1777914103 | 17.78° C | 66% | 1013.4 hPa | - | - | - | - |
| 1777913784 | 18.33° C | 65% | 1013.4 hPa | - | - | - | - |
| 1777913465 | 18.33° C | 63% | 1013.3 hPa | - | - | - | - |
| 1777913190 | 18.89° C | 62% | 1013.3 hPa | - | - | - | - |
| 1777912870 | 18.89° C | 61% | 1013.1 hPa | - | - | - | - |
| 1777912596 | 18.89° C | 61% | 1013.1 hPa | - | - | - | - |
| 1777912277 | 18.89° C | 62% | 1013.1 hPa | - | - | - | - |
| 1777912002 | 19.44° C | 60% | 1013.1 hPa | - | - | - | - |
| 1777911683 | 19.44° C | 59% | 1013 hPa | - | - | - | - |
| 1777911363 | 19.44° C | 59% | 1013 hPa | - | - | - | - |
| 1777911090 | 19.44° C | 59% | 1012.9 hPa | - | - | - | - |
| 1777910769 | 19.44° C | 59% | 1012.9 hPa | - | - | - | - |
| 1777910495 | 19.44° C | 59% | 1012.8 hPa | - | - | - | - |
| 1777910174 | 20° C | 58% | 1012.8 hPa | - | - | - | - |
| 1777909900 | 20° C | 58% | 1012.8 hPa | - | - | - | - |
| 1777909581 | 20° C | 58% | 1012.7 hPa | - | - | - | - |
| 1777909261 | 20.56° C | 57% | 1012.9 hPa | - | - | - | - |
| 1777908986 | 20.56° C | 57% | 1012.8 hPa | - | - | - | - |
| 1777908668 | 20.56° C | 57% | 1012.7 hPa | - | - | - | - |
| 1777908393 | 20.56° C | 56% | 1012.8 hPa | - | - | - | - |
| 1777908074 | 21.11° C | 56% | 1012.7 hPa | - | - | - | - |
| 1777907800 | 21.67° C | 54% | 1012.6 hPa | - | - | - | - |
| 1777907479 | 21.11° C | 55% | 1012.6 hPa | - | - | - | - |
| 1777907206 | 21.11° C | 56% | 1012.5 hPa | - | - | - | - |
| 1777906886 | 20.56° C | 57% | 1012.3 hPa | - | - | - | - |
* Rain since midnight (hover to see other rain measurements)
** Current wind speed in m/s (hover to see current wind gust speed)